,,Stat6,,Stat2,,Stat8,,Stat9,,Stat10,,Wind1,,Wind1,
time,status,PA1M_AVG,status,PR1M_SUM,status,RH1M_AVG,status,SR1M_AVG,status,TA1M_AVG,status,W1dAve1m,status,W1sAve1m,
2005-05-31, 00:00:00,VALID,917.676,VALID,0,VALID,100,VALID,0.0169808,VALID,19.4282,VALID,22,VALID,0.0805432,
2005-05-31, 00:01:00,VALID,917.681,VALID,0,VALID,100,VALID,0,VALID,19.347,VALID,22,VALID,0.188453,
2005-05-31, 00:02:00,VALID,917.682,VALID,0,VALID,100,VALID,0.0339617,VALID,19.2921,VALID,22,VALID,0.31343,
2005-05-31, 00:03:00,VALID,917.685,VALID,0,VALID,100,VALID,0.0339617,VALID,19.2601,VALID,22,VALID,0.352653,
2005-05-31, 00:04:00,VALID,917.676,VALID,0,VALID,100,VALID,0.0339617,VALID,19.2536,VALID,22,VALID,0.410065,
2005-05-31, 00:05:00,VALID,917.691,VALID,0,VALID,100,VALID,0.0509425,VALID,19.2504,VALID,22,VALID,0.447674,
2005-05-31, 00:06:00,VALID,917.686,VALID,0,VALID,100,VALID,0.0339617,VALID,19.2599,VALID,22,VALID,0.330729,
2005-05-31, 00:07:00,VALID,917.704,VALID,0,VALID,100,VALID,0.0339617,VALID,19.2991,VALID,22,VALID,0.273819,
2005-05-31, 00:08:00,VALID,917.736,VALID,0,VALID,100,VALID,0.0339617,VALID,19.3219,VALID,22,VALID,0.110547,
2005-05-31, 00:09:00,VALID,917.759,VALID,0,VALID,100,VALID,0.0169808,VALID,19.3413,VALID,22,VALID,0.0771484,
2005-05-31, 00:10:00,VALID,917.789,VALID,0,VALID,100,VALID,0.0169808,VALID,19.357,VALID,26,VALID,0.34013,
2005-05-31, 00:11:00,VALID,917.813,VALID,0,VALID,100,VALID,0.0339617,VALID,19.354,VALID,86,VALID,0.719703,
2005-05-31, 00:12:00,VALID,917.831,VALID,0,VALID,100,VALID,0.0339617,VALID,19.3351,VALID,106,VALID,0.783381,
2005-05-31, 00:13:00,VALID,917.842,VALID,0,VALID,100,VALID,0.0339617,VALID,19.2926,VALID,115,VALID,0.844105,
2005-05-31, 00:14:00,VALID,917.841,VALID,0,VALID,100,VALID,0,VALID,19.2829,VALID,118,VALID,0.73819,
2005-05-31, 00:15:00,VALID,917.832,VALID,0,VALID,100,VALID,0.0169808,VALID,19.2733,VALID,114,VALID,0.81612,
2005-05-31, 00:16:00,VALID,917.822,VALID,0,VALID,100,VALID,0.0339617,VALID,19.2569,VALID,101,VALID,0.881324,
2005-05-31, 00:17:00,VALID,917.811,VALID,0,VALID,100,VALID,0.0339617,VALID,19.2566,VALID,101,VALID,0.763719,
2005-05-31, 00:18:00,VALID,917.796,VALID,0,VALID,100,VALID,0.0509425,VALID,19.2303,VALID,101,VALID,0.682594,
2005-05-31, 00:19:00,VALID,917.785,VALID,0,VALID,100,VALID,0.0339617,VALID,19.2184,VALID,101,VALID,0.573317,
2005-05-31, 00:20:00,VALID,917.783,VALID,0,VALID,100,VALID,0.0679233,VALID,19.1985,VALID,101,VALID,0.628162,
2005-05-31, 00:21:00,VALID,917.767,VALID,0,VALID,100,VALID,0.0169808,VALID,19.1891,VALID,101,VALID,0.681286,
2005-05-31, 00:22:00,VALID,917.747,VALID,0,VALID,100,VALID,-0.0509425,VALID,19.2064,VALID,101,VALID,0.814029,
2005-05-31, 00:23:00,VALID,917.734,VALID,0,VALID,100,VALID,-0.0509425,VALID,19.2616,VALID,101,VALID,0.830412,
2005-05-31, 00:24:00,VALID,917.714,VALID,0,VALID,100,VALID,-0.0679233,VALID,19.2678,VALID,101,VALID,0.691778,
2005-05-31, 00:25:00,VALID,917.71,VALID,0,VALID,100,VALID,-0.0679233,VALID,19.2809,VALID,103,VALID,0.924107,
2005-05-31, 00:26:00,VALID,917.699,VALID,0,VALID,100,VALID,-0.0679233,VALID,19.3008,VALID,109,VALID,1.16744,
2005-05-31, 00:27:00,VALID,917.705,VALID,0,VALID,100,VALID,0,VALID,19.31,VALID,116,VALID,1.06141,
2005-05-31, 00:28:00,VALID,917.708,VALID,0,VALID,100,VALID,-0.0679233,VALID,19.3068,VALID,115,VALID,0.896763,
2005-05-31, 00:29:00,VALID,917.714,VALID,0,VALID,100,VALID,-0.0509425,VALID,19.2782,VALID,116,VALID,0.683239,
2005-05-31, 00:30:00,VALID,917.722,VALID,0,VALID,100,VALID,-0.0509425,VALID,19.2293,VALID,115,VALID,0.775,
2005-05-31, 00:31:00,VALID,917.724,VALID,0,VALID,100,VALID,-0.0509425,VALID,19.2168,VALID,110,VALID,1.0496,
2005-05-31, 00:32:00,VALID,917.716,VALID,0,VALID,100,VALID,-0.0849042,VALID,19.1741,VALID,109,VALID,0.963914,
2005-05-31, 00:33:00,VALID,917.713,VALID,0,VALID,100,VALID,-0.0679233,VALID,19.1843,VALID,107,VALID,0.865854,
2005-05-31, 00:34:00,VALID,917.703,VALID,0,VALID,100,VALID,-0.101885,VALID,19.1878,VALID,105,VALID,0.667969,
2005-05-31, 00:35:00,VALID,917.677,VALID,0,VALID,100,VALID,-0.0849042,VALID,19.1552,VALID,105,VALID,0.568452,
2005-05-31, 00:36:00,VALID,917.657,VALID,0,VALID,100,VALID,-0.101885,VALID,19.113,VALID,105,VALID,0.492188,
2005-05-31, 00:37:00,VALID,917.641,VALID,0,VALID,100,VALID,-0.0169808,VALID,19.0867,VALID,102,VALID,0.506669,
2005-05-31, 00:38:00,VALID,917.63,VALID,0,VALID,100,VALID,0.0169808,VALID,19.0505,VALID,98,VALID,0.47793,
2005-05-31, 00:39:00,VALID,917.618,VALID,0,VALID,100,VALID,0.0169808,VALID,19.0214,VALID,98,VALID,0.497275,
2005-05-31, 00:40:00,VALID,917.616,VALID,0,VALID,100,VALID,0,VALID,19.0187,VALID,98,VALID,0.490189,
2005-05-31, 00:41:00,VALID,917.618,VALID,0,VALID,100,VALID,0,VALID,19.0058,VALID,98,VALID,0.589208,
2005-05-31, 00:42:00,VALID,917.617,VALID,0,VALID,100,VALID,0.0169808,VALID,18.973,VALID,98,VALID,0.667969,
2005-05-31, 00:43:00,VALID,917.608,VALID,0,VALID,100,VALID,0,VALID,18.9866,VALID,98,VALID,0.816315,
2005-05-31, 00:44:00,VALID,917.598,VALID,0,VALID,100,VALID,0,VALID,18.9894,VALID,98,VALID,0.852778,
2005-05-31, 00:45:00,VALID,917.6,VALID,0,VALID,100,VALID,0,VALID,18.9891,VALID,97,VALID,0.861151,
2005-05-31, 00:46:00,VALID,917.602,VALID,0,VALID,100,VALID,0.0509425,VALID,18.973,VALID,97,VALID,0.807813,
2005-05-31, 00:47:00,VALID,917.594,VALID,0,VALID,100,VALID,0,VALID,18.9702,VALID,97,VALID,0.822917,
2005-05-31, 00:48:00,VALID,917.579,VALID,0,VALID,100,VALID,0,VALID,18.9765,VALID,97,VALID,0.768359,
2005-05-31, 00:49:00,VALID,917.572,VALID,0,VALID,100,VALID,0.0169808,VALID,18.9988,VALID,93,VALID,0.692522,
2005-05-31, 00:50:00,VALID,917.544,VALID,0,VALID,100,VALID,0.0169808,VALID,19.044,VALID,89,VALID,0.747523,
2005-05-31, 00:51:00,VALID,917.532,VALID,0,VALID,100,VALID,0.0509425,VALID,19.0895,VALID,83,VALID,0.728981,
2005-05-31, 00:52:00,VALID,917.524,VALID,0,VALID,100,VALID,0,VALID,19.1243,VALID,87,VALID,0.796113,
2005-05-31, 00:53:00,VALID,917.502,VALID,0,VALID,100,VALID,0.0509425,VALID,19.1344,VALID,90,VALID,0.527876,
2005-05-31, 00:54:00,VALID,917.49,VALID,0,VALID,100,VALID,0.0169808,VALID,19.1026,VALID,90,VALID,0.31875,
2005-05-31, 00:55:00,VALID,917.461,VALID,0,VALID,100,VALID,0.0169808,VALID,19.0959,VALID,104,VALID,0.71224,
2005-05-31, 00:56:00,VALID,917.432,VALID,0,VALID,100,VALID,0.0169808,VALID,19.0793,VALID,124,VALID,0.917878,
2005-05-31, 00:57:00,VALID,917.413,VALID,0,VALID,100,VALID,0.0509425,VALID,19.08,VALID,122,VALID,0.62157,
2005-05-31, 00:58:00,VALID,917.398,VALID,0,VALID,100,VALID,0.0339617,VALID,19.0477,VALID,123,VALID,0.466442,
2005-05-31, 00:59:00,VALID,917.409,VALID,0,VALID,100,VALID,0,VALID,19.0413,VALID,124,VALID,0.60119,
2005-05-31, 01:00:00,VALID,917.409,VALID,0,VALID,100,VALID,0.0339617,VALID,19.0475,VALID,130,VALID,0.658249,
2005-05-31, 01:01:00,VALID,917.423,VALID,0,VALID,100,VALID,-0.0169808,VALID,19.0475,VALID,129,VALID,0.505208,
2005-05-31, 01:02:00,VALID,917.42,VALID,0,VALID,100,VALID,0,VALID,19.0447,VALID,132,VALID,0.612749,
2005-05-31, 01:03:00,VALID,917.4,VALID,0,VALID,100,VALID,0.0509425,VALID,19.0279,VALID,137,VALID,0.618331,
2005-05-31, 01:04:00,VALID,917.388,VALID,0,VALID,100,VALID,0.0169808,VALID,19.0249,VALID,152,VALID,0.590402,
2005-05-31, 01:05:00,VALID,917.381,VALID,0,VALID,100,VALID,0.0679233,VALID,19.0184,VALID,141,VALID,0.546875,
2005-05-31, 01:06:00,VALID,917.359,VALID,0,VALID,100,VALID,0.0169808,VALID,19.0152,VALID,129,VALID,0.424419,
2005-05-31, 01:07:00,VALID,917.339,VALID,0,VALID,100,VALID,0.0169808,VALID,18.9988,VALID,128,VALID,0.379514,
2005-05-31, 01:08:00,VALID,917.31,VALID,0,VALID,100,VALID,0.0169808,VALID,18.9635,VALID,90,VALID,0.648624,
2005-05-31, 01:09:00,VALID,917.309,VALID,0,VALID,100,VALID,0.0339617,VALID,18.9218,VALID,58,VALID,0.921303,
2005-05-31, 01:10:00,VALID,917.31,VALID,0,VALID,100,VALID,0.0339617,VALID,18.9119,VALID,57,VALID,0.933594,
2005-05-31, 01:11:00,VALID,917.321,VALID,0,VALID,100,VALID,0.0339617,VALID,18.9342,VALID,69,VALID,0.876334,
2005-05-31, 01:12:00,VALID,917.339,VALID,0,VALID,100,VALID,0.0849042,VALID,18.9213,VALID,94,VALID,0.856213,
2005-05-31, 01:13:00,VALID,917.355,VALID,0,VALID,100,VALID,0.0509425,VALID,18.9116,VALID,103,VALID,1.01963,
2005-05-31, 01:14:00,VALID,917.366,VALID,0,VALID,100,VALID,0.0679233,VALID,18.9121,VALID,111,VALID,0.980283,
2005-05-31, 01:15:00,VALID,917.373,VALID,0,VALID,100,VALID,0.0509425,VALID,18.8625,VALID,112,VALID,0.898793,
2005-05-31, 01:16:00,VALID,917.378,VALID,0,VALID,100,VALID,0.0169808,VALID,18.8178,VALID,118,VALID,0.914063,
2005-05-31, 01:17:00,VALID,917.377,VALID,0,VALID,100,VALID,0,VALID,18.7924,VALID,121,VALID,1.05729,
2005-05-31, 01:18:00,VALID,917.387,VALID,0,VALID,100,VALID,0.0339617,VALID,18.7828,VALID,115,VALID,0.835175,
2005-05-31, 01:19:00,VALID,917.375,VALID,0,VALID,100,VALID,0.0339617,VALID,18.7763,VALID,111,VALID,0.589472,
2005-05-31, 01:20:00,VALID,917.37,VALID,0,VALID,100,VALID,0,VALID,18.7987,VALID,109,VALID,0.859193,
2005-05-31, 01:21:00,VALID,917.351,VALID,0,VALID,100,VALID,0,VALID,18.8478,VALID,108,VALID,0.890067,
2005-05-31, 01:22:00,VALID,917.328,VALID,0,VALID,100,VALID,0.0169808,VALID,18.9151,VALID,125,VALID,0.878997,
2005-05-31, 01:23:00,VALID,917.299,VALID,0,VALID,100,VALID,0,VALID,18.9665,VALID,135,VALID,1.01199,
2005-05-31, 01:24:00,VALID,917.285,VALID,0,VALID,100,VALID,0,VALID,18.9958,VALID,130,VALID,0.921148,
2005-05-31, 01:25:00,VALID,917.265,VALID,0,VALID,100,VALID,0.0169808,VALID,19.0284,VALID,136,VALID,0.84811,
2005-05-31, 01:26:00,VALID,917.265,VALID,0,VALID,100,VALID,0.0169808,VALID,19.0438,VALID,138,VALID,0.87066,
2005-05-31, 01:27:00,VALID,917.255,VALID,0,VALID,100,VALID,-0.0169808,VALID,19.0572,VALID,138,VALID,0.838415,
2005-05-31, 01:28:00,VALID,917.249,VALID,0,VALID,100,VALID,0,VALID,19.0443,VALID,140,VALID,0.839931,
2005-05-31, 01:29:00,VALID,917.24,VALID,0,VALID,100,VALID,-0.0169808,VALID,19.0505,VALID,140,VALID,0.821801,
2005-05-31, 01:30:00,VALID,917.218,VALID,0,VALID,100,VALID,0,VALID,19.0477,VALID,145,VALID,0.826308,
2005-05-31, 01:31:00,VALID,917.19,VALID,0,VALID,100,VALID,0.0509425,VALID,19.0443,VALID,130,VALID,1.32558,
2005-05-31, 01:32:00,VALID,917.155,VALID,0,VALID,100,VALID,0.0169808,VALID,19.0408,VALID,129,VALID,1.01119,
2005-05-31, 01:33:00,VALID,917.134,VALID,0,VALID,100,VALID,0,VALID,19.0284,VALID,133,VALID,0.859561,
2005-05-31, 01:34:00,VALID,917.117,VALID,0,VALID,100,VALID,0.0339617,VALID,19.0152,VALID,134,VALID,0.894259,
2005-05-31, 01:35:00,VALID,917.096,VALID,0,VALID,100,VALID,0.0339617,VALID,19.0053,VALID,136,VALID,0.678163,
2005-05-31, 01:36:00,VALID,917.073,VALID,0,VALID,100,VALID,0,VALID,18.9887,VALID,127,VALID,0.415879,
2005-05-31, 01:37:00,VALID,917.054,VALID,0,VALID,100,VALID,0.0339617,VALID,18.9757,VALID,126,VALID,0.482244,
2005-05-31, 01:38:00,VALID,917.032,VALID,0,VALID,100,VALID,0,VALID,18.9402,VALID,131,VALID,0.747638,
2005-05-31, 01:39:00,VALID,917.017,VALID,0,VALID,100,VALID,0.0509425,VALID,18.9372,VALID,142,VALID,0.706287,
2005-05-31, 01:40:00,VALID,916.985,VALID,0,VALID,100,VALID,0.0169808,VALID,18.9437,VALID,132,VALID,0.785065,
2005-05-31, 01:41:00,VALID,916.95,VALID,0,VALID,100,VALID,0.0169808,VALID,18.9502,VALID,135,VALID,0.335938,
2005-05-31, 01:42:00,VALID,916.912,VALID,0,VALID,100,VALID,0.0509425,VALID,18.937,VALID,134,VALID,0.377539,
2005-05-31, 01:43:00,VALID,916.894,VALID,0,VALID,100,VALID,0.0509425,VALID,18.9472,VALID,134,VALID,0.22603,
2005-05-31, 01:44:00,VALID,916.866,VALID,0,VALID,100,VALID,0.0169808,VALID,18.9476,VALID,134,VALID,0.015625,
2005-05-31, 01:45:00,VALID,916.844,VALID,0,VALID,100,VALID,-0.0169808,VALID,18.9091,VALID,134,VALID,0.185069,
2005-05-31, 01:46:00,VALID,916.83,VALID,0,VALID,100,VALID,0,VALID,18.8702,VALID,134,VALID,0.0396484,
2005-05-31, 01:47:00,VALID,916.809,VALID,0,VALID,100,VALID,0.0169808,VALID,18.8441,VALID,134,VALID,0.147294,
2005-05-31, 01:48:00,VALID,916.786,VALID,0,VALID,100,VALID,0.0169808,VALID,18.8178,VALID,134,VALID,0.155649,
2005-05-31, 01:49:00,VALID,916.785,VALID,0,VALID,100,VALID,0,VALID,18.8406,VALID,134,VALID,0,
2005-05-31, 01:50:00,VALID,916.764,VALID,0,VALID,100,VALID,0,VALID,18.8439,VALID,134,VALID,0,
2005-05-31, 01:51:00,VALID,916.745,VALID,0,VALID,100,VALID,0,VALID,18.8116,VALID,134,VALID,0.209263,
2005-05-31, 01:52:00,VALID,916.724,VALID,0,VALID,100,VALID,0,VALID,18.744,VALID,123,VALID,0.537791,
2005-05-31, 01:53:00,VALID,916.7,VALID,0,VALID,100,VALID,0,VALID,18.7373,VALID,123,VALID,0.499818,
2005-05-31, 01:54:00,VALID,916.683,VALID,0,VALID,100,VALID,0,VALID,18.7475,VALID,123,VALID,0.484747,
2005-05-31, 01:55:00,VALID,916.67,VALID,0,VALID,100,VALID,0.0339617,VALID,18.7343,VALID,123,VALID,0.479539,
2005-05-31, 01:56:00,VALID,916.659,VALID,0,VALID,100,VALID,0,VALID,18.6896,VALID,123,VALID,0.378811,
2005-05-31, 01:57:00,VALID,916.656,VALID,0,VALID,100,VALID,0,VALID,18.6255,VALID,123,VALID,0.38519,
2005-05-31, 01:58:00,VALID,916.637,VALID,0,VALID,100,VALID,0.0169808,VALID,18.5987,VALID,123,VALID,0.316964,
2005-05-31, 01:59:00,VALID,916.63,VALID,0,VALID,100,VALID,0,VALID,18.5379,VALID,123,VALID,0.317264,
2005-05-31, 02:00:00,VALID,916.631,VALID,0,VALID,100,VALID,0,VALID,18.4346,VALID,119,VALID,0.613194,
2005-05-31, 02:01:00,VALID,916.641,VALID,0,VALID,100,VALID,0,VALID,18.3926,VALID,85,VALID,1.10174,
2005-05-31, 02:02:00,VALID,916.65,VALID,0,VALID,100,VALID,0.0169808,VALID,18.3497,VALID,83,VALID,1.11267,
2005-05-31, 02:03:00,VALID,916.651,VALID,0,VALID,100,VALID,0,VALID,18.3629,VALID,94,VALID,1.26326,
2005-05-31, 02:04:00,VALID,916.655,VALID,0,VALID,100,VALID,0,VALID,18.4286,VALID,112,VALID,1.27717,
2005-05-31, 02:05:00,VALID,916.67,VALID,0,VALID,100,VALID,0,VALID,18.4565,VALID,113,VALID,1.08817,
2005-05-31, 02:06:00,VALID,916.69,VALID,0,VALID,100,VALID,0,VALID,18.4636,VALID,128,VALID,0.899368,
2005-05-31, 02:07:00,VALID,916.71,VALID,0,VALID,100,VALID,-0.0169808,VALID,18.4636,VALID,127,VALID,1.28496,
2005-05-31, 02:08:00,VALID,916.723,VALID,0,VALID,100,VALID,-0.0169808,VALID,18.4832,VALID,134,VALID,1.02416,
2005-05-31, 02:09:00,VALID,916.722,VALID,0,VALID,100,VALID,-0.0169808,VALID,18.5448,VALID,116,VALID,1.28516,
2005-05-31, 02:10:00,VALID,916.727,VALID,0,VALID,100,VALID,-0.0169808,VALID,18.596,VALID,100,VALID,0.99721,
2005-05-31, 02:11:00,VALID,916.741,VALID,0,VALID,100,VALID,-0.0169808,VALID,18.632,VALID,111,VALID,1.30208,
2005-05-31, 02:12:00,VALID,916.73,VALID,0,VALID,100,VALID,0,VALID,18.6605,VALID,106,VALID,1.11991,
2005-05-31, 02:13:00,VALID,916.726,VALID,0,VALID,100,VALID,0.0169808,VALID,18.667,VALID,108,VALID,0.952172,
2005-05-31, 02:14:00,VALID,916.718,VALID,0,VALID,100,VALID,0,VALID,18.6767,VALID,97,VALID,1.02418,
2005-05-31, 02:15:00,VALID,916.714,VALID,0,VALID,100,VALID,0,VALID,18.6933,VALID,96,VALID,0.941497,
2005-05-31, 02:16:00,VALID,916.708,VALID,0,VALID,100,VALID,0,VALID,18.664,VALID,92,VALID,0.916193,
2005-05-31, 02:17:00,VALID,916.725,VALID,0,VALID,100,VALID,0.0169808,VALID,18.6213,VALID,95,VALID,1.23476,
2005-05-31, 02:18:00,VALID,916.738,VALID,0,VALID,100,VALID,0,VALID,18.596,VALID,95,VALID,1.37252,
2005-05-31, 02:19:00,VALID,916.75,VALID,0,VALID,100,VALID,0,VALID,18.5731,VALID,91,VALID,1.1101,
2005-05-31, 02:20:00,VALID,916.777,VALID,0,VALID,100,VALID,0.0509425,VALID,18.5572,VALID,88,VALID,0.831003,
2005-05-31, 02:21:00,VALID,916.782,VALID,0,VALID,100,VALID,0,VALID,18.5605,VALID,91,VALID,1.15551,
2005-05-31, 02:22:00,VALID,916.778,VALID,0,VALID,100,VALID,-0.0339617,VALID,18.551,VALID,81,VALID,0.754972,
2005-05-31, 02:23:00,VALID,916.782,VALID,0,VALID,100,VALID,-0.0169808,VALID,18.542,VALID,78,VALID,0.770508,
2005-05-31, 02:24:00,VALID,916.777,VALID,0,VALID,100,VALID,-0.0849042,VALID,18.5353,VALID,102,VALID,0.703125,
2005-05-31, 02:25:00,VALID,916.759,VALID,0,VALID,100,VALID,-0.0679233,VALID,18.545,VALID,91,VALID,0.909268,
2005-05-31, 02:26:00,VALID,916.758,VALID,0,VALID,100,VALID,-0.0339617,VALID,18.545,VALID,93,VALID,0.9375,
2005-05-31, 02:27:00,VALID,916.741,VALID,0,VALID,100,VALID,-0.0679233,VALID,18.5575,VALID,96,VALID,0.816229,
2005-05-31, 02:28:00,VALID,916.745,VALID,0,VALID,100,VALID,-0.0509425,VALID,18.5651,VALID,96,VALID,0.562881,
2005-05-31, 02:29:00,VALID,916.741,VALID,0,VALID,100,VALID,-0.0339617,VALID,18.5453,VALID,95,VALID,0.198171,
2005-05-31, 02:30:00,VALID,916.732,VALID,0,VALID,100,VALID,0,VALID,18.5162,VALID,95,VALID,0.00373641,
2005-05-31, 02:31:00,VALID,916.712,VALID,0,VALID,100,VALID,-0.0339617,VALID,18.5093,VALID,95,VALID,0,
2005-05-31, 02:32:00,VALID,916.703,VALID,0,VALID,100,VALID,-0.0679233,VALID,18.513,VALID,95,VALID,0,
2005-05-31, 02:33:00,VALID,916.671,VALID,0,VALID,100,VALID,-0.0509425,VALID,18.5063,VALID,95,VALID,0,
2005-05-31, 02:34:00,VALID,916.653,VALID,0,VALID,100,VALID,-0.101885,VALID,18.4931,VALID,95,VALID,0,
2005-05-31, 02:35:00,VALID,916.641,VALID,0,VALID,100,VALID,-0.0849042,VALID,18.4934,VALID,95,VALID,0,
2005-05-31, 02:36:00,VALID,916.648,VALID,0,VALID,100,VALID,-0.0339617,VALID,18.4934,VALID,95,VALID,0,
2005-05-31, 02:37:00,VALID,916.66,VALID,0,VALID,100,VALID,-0.0679233,VALID,18.513,VALID,95,VALID,0.18892,
2005-05-31, 02:38:00,VALID,916.674,VALID,0,VALID,100,VALID,-0.0509425,VALID,18.4966,VALID,95,VALID,0.388494,
2005-05-31, 02:39:00,VALID,916.688,VALID,0,VALID,100,VALID,-0.0849042,VALID,18.51,VALID,95,VALID,0.254972,
2005-05-31, 02:40:00,VALID,916.679,VALID,0,VALID,100,VALID,-0.0849042,VALID,18.5264,VALID,95,VALID,0,
2005-05-31, 02:41:00,VALID,916.682,VALID,0,VALID,100,VALID,-0.0509425,VALID,18.5425,VALID,95,VALID,0,
2005-05-31, 02:42:00,VALID,916.672,VALID,0,VALID,100,VALID,-0.0679233,VALID,18.5162,VALID,95,VALID,0,
2005-05-31, 02:43:00,VALID,916.66,VALID,0,VALID,100,VALID,-0.0849042,VALID,18.4099,VALID,95,VALID,0.11849,
2005-05-31, 02:44:00,VALID,916.662,VALID,0,VALID,100,VALID,-0.0339617,VALID,18.3036,VALID,95,VALID,0.331731,
2005-05-31, 02:45:00,VALID,916.675,VALID,0,VALID,100,VALID,-0.0679233,VALID,18.2167,VALID,67,VALID,0.833031,
2005-05-31, 02:46:00,VALID,916.693,VALID,0,VALID,100,VALID,-0.101885,VALID,18.091,VALID,31,VALID,1.11151,
2005-05-31, 02:47:00,VALID,916.703,VALID,0,VALID,100,VALID,-0.0509425,VALID,18.0324,VALID,37,VALID,1.03182,
2005-05-31, 02:48:00,VALID,916.717,VALID,0,VALID,100,VALID,-0.0849042,VALID,17.9942,VALID,42,VALID,0.967361,
2005-05-31, 02:49:00,VALID,916.718,VALID,0,VALID,100,VALID,-0.101885,VALID,17.987,VALID,49,VALID,1.09943,
2005-05-31, 02:50:00,VALID,916.719,VALID,0,VALID,100,VALID,-0.0849042,VALID,18.1035,VALID,52,VALID,1.45033,
2005-05-31, 02:51:00,VALID,916.718,VALID,0,VALID,100,VALID,-0.0849042,VALID,18.1807,VALID,52,VALID,1.56523,
2005-05-31, 02:52:00,VALID,916.716,VALID,0,VALID,100,VALID,-0.0339617,VALID,18.2351,VALID,58,VALID,1.39546,
2005-05-31, 02:53:00,VALID,916.691,VALID,0,VALID,100,VALID,0.0169808,VALID,18.2379,VALID,80,VALID,1.1092,
2005-05-31, 02:54:00,VALID,916.66,VALID,0,VALID,100,VALID,0,VALID,18.2284,VALID,87,VALID,1.22238,
2005-05-31, 02:55:00,VALID,916.64,VALID,0,VALID,100,VALID,0,VALID,18.2217,VALID,66,VALID,1.06676,
2005-05-31, 02:56:00,VALID,916.615,VALID,0,VALID,100,VALID,0.0169808,VALID,18.1989,VALID,54,VALID,1.06854,
2005-05-31, 02:57:00,VALID,916.598,VALID,0,VALID,100,VALID,0.0339617,VALID,18.1639,VALID,41,VALID,0.82512,
2005-05-31, 02:58:00,VALID,916.579,VALID,0,VALID,100,VALID,0,VALID,18.1507,VALID,41,VALID,0.51669,
2005-05-31, 02:59:00,VALID,916.565,VALID,0,VALID,100,VALID,0.0169808,VALID,18.1537,VALID,41,VALID,0.130208,
2005-05-31, 03:00:00,VALID,916.533,VALID,0,VALID,100,VALID,0.0169808,VALID,18.1307,VALID,41,VALID,0.00279018,
2005-05-31, 03:01:00,VALID,916.501,VALID,0,VALID,100,VALID,0,VALID,18.1277,VALID,41,VALID,0,
2005-05-31, 03:02:00,VALID,916.484,VALID,0,VALID,100,VALID,0.0169808,VALID,18.1113,VALID,41,VALID,0.201451,
2005-05-31, 03:03:00,VALID,916.448,VALID,0,VALID,100,VALID,0,VALID,18.0795,VALID,48,VALID,0.412326,
2005-05-31, 03:04:00,VALID,916.448,VALID,0,VALID,100,VALID,0.0339617,VALID,18.0308,VALID,66,VALID,0.639672,
2005-05-31, 03:05:00,VALID,916.462,VALID,0,VALID,100,VALID,0.0169808,VALID,18.038,VALID,89,VALID,0.582775,
2005-05-31, 03:06:00,VALID,916.5,VALID,0,VALID,100,VALID,0.0169808,VALID,18.0122,VALID,88,VALID,0.137536,
2005-05-31, 03:07:00,VALID,916.525,VALID,0,VALID,100,VALID,-0.0509425,VALID,17.9225,VALID,88,VALID,0,
2005-05-31, 03:08:00,VALID,916.536,VALID,0,VALID,100,VALID,-0.0849042,VALID,17.8906,VALID,88,VALID,0,
2005-05-31, 03:09:00,VALID,916.559,VALID,0,VALID,100,VALID,-0.0679233,VALID,17.8973,VALID,88,VALID,0.352764,
2005-05-31, 03:10:00,VALID,916.559,VALID,0,VALID,100,VALID,-0.0679233,VALID,17.8768,VALID,88,VALID,0.606771,
2005-05-31, 03:11:00,VALID,916.563,VALID,0,VALID,100,VALID,-0.101885,VALID,17.9647,VALID,88,VALID,0.776486,
2005-05-31, 03:12:00,VALID,916.562,VALID,0,VALID,100,VALID,-0.0849042,VALID,18.0843,VALID,88,VALID,0.827943,
2005-05-31, 03:13:00,VALID,916.554,VALID,0,VALID,100,VALID,-0.0849042,VALID,18.1394,VALID,88,VALID,0.766715,
2005-05-31, 03:14:00,VALID,916.555,VALID,0,VALID,100,VALID,-0.0849042,VALID,18.1519,VALID,88,VALID,0.641715,
2005-05-31, 03:15:00,VALID,916.546,VALID,0,VALID,100,VALID,0,VALID,18.1411,VALID,88,VALID,0.165838,
2005-05-31, 03:16:00,VALID,916.527,VALID,0,VALID,100,VALID,0.0339617,VALID,18.0864,VALID,88,VALID,0.10747,
2005-05-31, 03:17:00,VALID,916.53,VALID,0,VALID,100,VALID,0.0339617,VALID,18.0666,VALID,88,VALID,0.16695,
2005-05-31, 03:18:00,VALID,916.527,VALID,0,VALID,100,VALID,0.0679233,VALID,18.0599,VALID,88,VALID,0.190104,
2005-05-31, 03:19:00,VALID,916.533,VALID,0,VALID,100,VALID,0.0339617,VALID,18.0405,VALID,88,VALID,0.524934,
2005-05-31, 03:20:00,VALID,916.545,VALID,0,VALID,100,VALID,0.0509425,VALID,18.0025,VALID,113,VALID,0.747396,
2005-05-31, 03:21:00,VALID,916.554,VALID,0,VALID,100,VALID,0.0509425,VALID,17.9898,VALID,130,VALID,0.981179,
2005-05-31, 03:22:00,VALID,916.57,VALID,0,VALID,100,VALID,0.0509425,VALID,17.9988,VALID,138,VALID,1.14968,
2005-05-31, 03:23:00,VALID,916.579,VALID,0,VALID,100,VALID,0.0169808,VALID,18.0412,VALID,135,VALID,1.2603,
2005-05-31, 03:24:00,VALID,916.6,VALID,0,VALID,100,VALID,0.0509425,VALID,18.0539,VALID,120,VALID,0.996271,
2005-05-31, 03:25:00,VALID,916.625,VALID,0,VALID,100,VALID,0.0509425,VALID,18.0541,VALID,110,VALID,1.28018,
2005-05-31, 03:26:00,VALID,916.636,VALID,0,VALID,100,VALID,0.0339617,VALID,18.0606,VALID,106,VALID,1.16921,
2005-05-31, 03:27:00,VALID,916.646,VALID,0,VALID,100,VALID,0.0169808,VALID,18.0546,VALID,130,VALID,1.00745,
2005-05-31, 03:28:00,VALID,916.647,VALID,0,VALID,100,VALID,-0.0169808,VALID,18.0739,VALID,134,VALID,0.889205,
2005-05-31, 03:29:00,VALID,916.636,VALID,0,VALID,100,VALID,0.0339617,VALID,18.0931,VALID,138,VALID,0.986737,
2005-05-31, 03:30:00,VALID,916.643,VALID,0,VALID,100,VALID,0,VALID,18.1286,VALID,144,VALID,0.855469,
2005-05-31, 03:31:00,VALID,916.637,VALID,0,VALID,100,VALID,0.0169808,VALID,18.1353,VALID,149,VALID,0.527539,
2005-05-31, 03:32:00,VALID,916.631,VALID,0,VALID,100,VALID,-0.0169808,VALID,18.1381,VALID,149,VALID,0.68192,
2005-05-31, 03:33:00,VALID,916.638,VALID,0,VALID,100,VALID,0.0169808,VALID,18.1542,VALID,145,VALID,0.644903,
2005-05-31, 03:34:00,VALID,916.637,VALID,0,VALID,100,VALID,0,VALID,18.1673,VALID,146,VALID,1.02344,
2005-05-31, 03:35:00,VALID,916.625,VALID,0,VALID,100,VALID,0,VALID,18.2028,VALID,148,VALID,1.1814,
2005-05-31, 03:36:00,VALID,916.596,VALID,0,VALID,100,VALID,0,VALID,18.2125,VALID,139,VALID,1.18691,
2005-05-31, 03:37:00,VALID,916.593,VALID,0,VALID,100,VALID,-0.0679233,VALID,18.1938,VALID,135,VALID,1.04965,
2005-05-31, 03:38:00,VALID,916.577,VALID,0,VALID,100,VALID,-0.101885,VALID,18.1687,VALID,130,VALID,0.763086,
2005-05-31, 03:39:00,VALID,916.575,VALID,0,VALID,100,VALID,-0.101885,VALID,18.1493,VALID,112,VALID,0.702035,
2005-05-31, 03:40:00,VALID,916.57,VALID,0,VALID,100,VALID,-0.0849042,VALID,18.1173,VALID,79,VALID,0.473166,
2005-05-31, 03:41:00,VALID,916.573,VALID,0,VALID,100,VALID,-0.118866,VALID,18.1009,VALID,79,VALID,0.0482639,
2005-05-31, 03:42:00,VALID,916.577,VALID,0,VALID,100,VALID,-0.101885,VALID,18.046,VALID,89,VALID,0.385764,